Date_and_time,latitude,longitude,wind_speed,RelWindDirFrom,WindDirFrom,air_pressure,air_temperature,relative_humidity,Temp,platform_speed_wrt_ground,air_pressure_at_mean_sea_level,platform_orientation
2018-04-18 23:30,50.63042,-96.9807633333333,4.7,5.2,42,996.59,3.9,44,3.38,0.0,1024.31,48.3
2018-04-18 23:40,50.6304183333333,-96.9807483333333,3.6,4.6,40,996.65,3.8,48,3.40,0.0,1024.38,48.3
2018-04-18 23:50,50.63043,-96.980755,2.5,3.7,41,996.68,3.7,49,3.41,0.0,1024.43,48.3
2018-04-19 00:00,50.6304316666667,-96.9807566666667,3.0,4.0,36,996.67,3.9,45,3.41,0.0,1024.41,138.7
2018-04-19 00:10,50.6304316666667,-96.980755,2.1,3.4,34,996.72,3.9,45,3.41,0.0,1024.45,138.7
2018-04-19 00:20,50.6304316666667,-96.980755,2.5,3.8,25,996.77,3.4,47,3.40,0.0,1024.52,138.7
2018-04-19 00:30,50.6304316666667,-96.980755,4.7,6.9,21,996.84,3.0,46,3.41,0.0,1024.62,138.7
2018-04-19 00:40,50.6304333333333,-96.9807533333333,5.4,7.3,360,996.84,3.3,41,3.42,0.0,1024.59,138.7
2018-04-19 00:50,50.630435,-96.9807533333333,4.8,5.3,351,996.88,4.5,31,3.42,0.0,1024.55,138.7
2018-04-19 01:00,50.6304416666667,-96.9808016666667,4.1,5.1,352,996.95,5.6,25,3.42,0.0,1024.58,280.0
2018-04-19 01:10,50.63044,-96.9807466666667,1.9,2.3,7,996.98,6.0,24,3.43,0.0,1024.58,280.0
2018-04-19 01:20,50.63044,-96.9807516666667,2.2,2.8,19,996.99,5.9,24,3.44,0.0,1024.61,280.0
2018-04-19 01:30,50.6304383333333,-96.9807483333333,2.2,3.3,351,997.12,5.3,27,3.45,0.0,1024.78,280.0
2018-04-19 01:40,50.63044,-96.9807483333333,1.0,2.9,351,997.22,5.0,29,3.44,0.0,1024.90,280.0
2018-04-19 01:50,50.6304416666667,-96.9807516666667,0.8,2.0,227,997.29,4.0,31,3.43,0.0,1025.02,280.0
2018-04-19 02:00,50.6304533333333,-96.9807466666667,0.3,1.3,128,997.37,4.0,32,3.43,0.0,1025.09,32.5
2018-04-19 02:10,50.6304383333333,-96.9807516666667,1.0,2.0,138,997.43,3.3,36,3.43,0.0,1025.22,32.5
2018-04-19 02:20,50.63045,-96.9807766666667,1.0,2.2,89,997.47,2.8,38,3.43,0.0,1025.31,32.5
2018-04-19 02:30,50.630445,-96.980765,1.7,2.3,27,997.53,2.7,37,3.44,0.0,1025.35,32.5
2018-04-19 02:40,50.6304466666667,-96.9807616666667,1.5,2.1,339,997.63,2.8,37,3.44,0.0,1025.40,32.5
2018-04-19 02:50,50.630425,-96.980765,1.0,2.9,278,997.72,2.8,35,3.45,0.0,1025.43,32.5
2018-04-19 03:00,50.6304316666667,-96.9807683333333,0.8,1.5,96,997.72,3.5,32,3.45,0.0,1025.37,270.0
2018-04-19 03:10,50.6304316666667,-96.9807616666667,0.4,1.4,82,997.78,2.7,39,3.45,0.0,1025.48,270.0
2018-04-19 03:20,50.6304333333333,-96.9807616666667,1.6,2.6,99,997.77,2.8,36,3.46,0.0,1025.49,270.0
2018-04-19 03:30,50.6304316666667,-96.98076,1.9,2.7,128,997.75,2.4,40,3.48,0.0,1025.52,270.0
2018-04-19 03:40,50.6304316666667,-96.9807583333333,1.4,2.5,172,997.80,1.3,44,3.48,0.0,1025.66,270.0
2018-04-19 03:50,50.6304316666667,-96.98073,2.6,3.0,143,997.82,2.3,39,3.47,0.0,1025.64,270.0
2018-04-19 04:00,50.6304416666667,-96.9807616666667,3.1,3.7,172,997.87,1.5,42,3.48,0.0,1025.77,90.0
2018-04-19 04:10,50.630435,-96.9807583333333,3.6,4.2,188,997.84,1.1,43,3.48,0.0,1025.79,90.0
2018-04-19 04:20,50.6304333333333,-96.9807583333333,3.3,3.8,192,997.76,1.6,38,3.48,0.0,1025.68,90.0
2018-04-19 04:30,50.6304333333333,-96.98076,4.1,4.6,183,997.74,1.8,38,3.49,0.0,1025.64,90.0
2018-04-19 04:40,50.6304316666667,-96.9807616666667,4.2,4.6,194,997.85,1.7,39,3.49,0.0,1025.76,90.0
2018-04-19 04:50,50.6304316666667,-96.9807616666667,3.4,4.5,205,997.96,2.1,34,3.50,0.0,1025.82,90.0
2018-04-19 05:00,50.6304216666667,-96.9807783333333,2.9,3.6,220,998.02,2.4,33,3.50,0.0,1025.91,221.2
2018-04-19 05:10,50.6304316666667,-96.9807633333333,3.7,4.5,202,998.09,2.3,33,3.50,0.0,1025.98,221.2
2018-04-19 05:20,50.6304316666667,-96.980765,3.8,4.9,199,998.20,2.5,32,3.50,0.0,1026.11,221.2
2018-04-19 05:30,50.63043,-96.98076,3.7,4.3,196,998.26,2.9,30,3.50,0.0,1026.20,221.2
2018-04-19 05:40,50.63043,-96.98076,4.1,4.8,214,998.39,3.1,29,3.51,0.0,1026.28,221.2
2018-04-19 05:50,50.6304316666667,-96.98076,4.7,5.6,224,998.45,2.8,32,3.50,0.0,1026.39,221.2
2018-04-19 06:00,50.6304333333333,-96.9807583333333,6.4,10.8,250,998.60,2.3,36,3.51,0.0,1026.59,90.0
2018-04-19 06:10,50.6304333333333,-96.98076,7.3,10.2,259,998.69,2.1,35,3.52,0.0,1026.67,90.0
2018-04-19 06:20,50.630455,-96.98077,6.8,8.5,261,998.81,2.4,34,3.51,0.0,1026.76,90.0
2018-04-19 06:30,50.630435,-96.9807583333333,6.9,8.8,268,998.91,2.6,33,3.51,0.0,1026.86,90.0
2018-04-19 06:40,50.6304416666667,-96.980755,6.0,8.1,271,998.94,2.5,34,3.52,0.0,1026.88,90.0
2018-04-19 06:50,50.63044,-96.980755,6.1,8.2,267,999.00,3.0,32,3.51,0.0,1026.90,90.0
2018-04-19 07:00,50.63044,-96.9807566666667,6.0,7.8,267,999.07,3.2,32,3.51,0.0,1026.97,90.0
2018-04-19 07:10,50.6304383333333,-96.980755,5.7,7.3,264,999.17,3.2,32,3.52,0.0,1027.06,90.0
2018-04-19 07:20,50.630425,-96.9807516666667,5.4,6.4,259,999.19,3.2,32,3.52,0.0,1027.06,90.0
2018-04-19 07:30,50.6304216666667,-96.98076,4.6,5.9,254,999.22,3.1,33,3.51,0.0,1027.08,90.0
2018-04-19 07:40,50.6304233333333,-96.9807583333333,4.8,5.7,259,999.24,3.3,32,3.50,0.0,1027.11,90.0
2018-04-19 07:50,50.6304266666667,-96.980755,3.6,4.8,259,999.33,3.3,33,3.50,0.0,1027.22,90.0
2018-04-19 08:00,50.6304383333333,-96.98076,2.8,3.4,253,999.33,2.9,35,3.51,0.0,1027.26,36.6
2018-04-19 08:10,50.6304316666667,-96.980765,3.4,4.1,249,999.31,2.9,34,3.52,0.0,1027.22,36.6
2018-04-19 08:20,50.6304266666667,-96.9807583333333,3.5,4.6,249,999.27,3.1,33,3.53,0.0,1027.16,36.6
2018-04-19 08:30,50.6304283333333,-96.98076,3.5,4.3,253,999.29,3.3,33,3.53,0.0,1027.17,36.6
2018-04-19 08:40,50.6304283333333,-96.9807566666667,3.0,4.5,246,999.42,3.0,36,3.52,0.0,1027.30,36.6
2018-04-19 08:50,50.63043,-96.9807583333333,3.3,4.6,250,999.53,2.3,37,3.53,0.0,1027.44,36.6
2018-04-19 09:00,50.6304316666667,-96.9807583333333,3.6,6.0,249,999.60,2.4,36,3.53,0.0,1027.50,0.0
2018-04-19 09:10,50.6304316666667,-96.9807566666667,6.5,11.0,282,999.74,1.6,42,3.53,0.0,1027.69,0.0
2018-04-19 09:20,50.6304316666667,-96.9807583333333,5.7,7.5,277,999.77,1.3,41,3.52,0.0,1027.74,0.0
2018-04-19 09:30,50.6304333333333,-96.9807583333333,6.0,7.2,286,999.76,1.3,41,3.52,0.0,1027.73,0.0
2018-04-19 09:40,50.6304333333333,-96.9807583333333,5.9,7.7,282,999.84,1.1,42,3.52,0.0,1027.82,0.0
2018-04-19 09:50,50.6304383333333,-96.98077,5.7,6.8,290,999.85,0.9,43,3.51,0.0,1027.86,0.0
2018-04-19 10:00,50.6304333333333,-96.9807583333333,4.7,6.2,294,999.89,1.0,43,3.51,0.0,1027.89,360.0
2018-04-19 10:10,50.6304333333333,-96.9807566666667,4.4,5.8,294,999.99,0.7,44,3.51,0.0,1028.00,360.0
2018-04-19 10:20,50.630435,-96.9807516666667,5.0,6.3,291,1000.09,0.8,43,3.52,0.0,1028.08,360.0
2018-04-19 10:30,50.630435,-96.980755,5.4,6.5,299,1000.12,1.4,40,3.51,0.0,1028.10,360.0
2018-04-19 10:40,50.6304333333333,-96.9807516666667,2.3,5.0,310,1000.20,1.5,40,3.50,0.0,1028.21,360.0
2018-04-19 10:50,50.6304433333333,-96.9807383333333,0.6,2.2,299,1000.26,1.2,42,3.50,0.0,1028.29,360.0
2018-04-19 11:00,50.630435,-96.9807466666667,1.2,2.5,294,1000.37,0.9,43,3.47,0.0,1028.45,125.3
2018-04-19 11:10,50.6304333333333,-96.98075,2.8,3.7,277,1000.48,0.6,43,3.44,0.0,1028.60,125.3
2018-04-19 11:20,50.630435,-96.9807533333333,2.7,4.0,267,1000.50,0.6,44,3.45,0.0,1028.62,125.3
2018-04-19 11:30,50.6303966666667,-96.980775,2.8,4.5,268,1000.55,0.6,44,3.46,0.0,1028.69,125.3
2018-04-19 11:40,50.630445,-96.980755,2.1,4.5,280,1000.58,0.6,44,3.44,0.0,1028.72,125.3
2018-04-19 11:50,50.63046,-96.9807466666667,1.3,2.2,277,1000.65,0.3,47,3.43,0.0,1028.80,125.3
2018-04-19 12:00,50.6304333333333,-96.980745,2.5,3.5,242,1000.74,-0.5,49,3.41,0.0,1028.95,90.0
2018-04-19 12:10,50.6304316666667,-96.9807466666667,2.0,2.6,226,1000.81,-0.6,49,3.42,0.0,1029.02,90.0
2018-04-19 12:20,50.6304316666667,-96.9807466666667,1.8,2.2,221,1000.91,-0.7,52,3.43,0.0,1029.10,90.0
2018-04-19 12:30,50.6304366666667,-96.9807483333333,1.5,2.3,225,1000.98,-1.1,54,3.42,0.0,1029.19,90.0
2018-04-19 12:40,50.6304366666667,-96.9807483333333,2.0,2.4,248,1001.08,-0.6,51,3.41,0.0,1029.28,90.0
2018-04-19 12:50,50.6304366666667,-96.9807483333333,2.2,2.9,244,1001.04,0.4,46,3.41,0.0,1029.21,90.0
2018-04-19 13:00,50.6304366666667,-96.9807516666667,2.6,3.2,246,1001.10,0.8,46,3.42,0.0,1029.27,48.3
2018-04-19 13:10,50.6304366666667,-96.9807516666667,1.9,2.7,260,1001.14,1.3,46,3.43,0.0,1029.28,48.3
2018-04-19 13:20,50.6304366666667,-96.9807516666667,1.1,2.7,246,1001.23,1.5,47,3.44,0.0,1029.36,48.3
2018-04-19 13:30,50.6304366666667,-96.9807516666667,1.0,1.6,206,1001.31,1.4,47,3.44,0.0,1029.45,48.3
2018-04-19 13:40,50.6304366666667,-96.9807516666667,0.9,1.9,226,1001.34,2.0,47,3.44,0.0,1029.46,48.3
2018-04-19 13:50,50.630435,-96.9807516666667,1.0,1.6,234,1001.42,2.8,46,3.44,0.0,1029.55,48.3
2018-04-19 14:00,50.6304333333333,-96.9807516666667,1.3,2.1,215,1001.49,3.5,45,3.43,0.0,1029.59,228.3
2018-04-19 14:10,50.630435,-96.9807516666667,0.9,2.1,183,1001.53,4.1,45,3.42,0.0,1029.60,228.3
2018-04-19 14:20,50.630435,-96.9807516666667,2.1,2.6,163,1001.57,4.2,44,3.42,0.0,1029.65,228.3
2018-04-19 14:30,50.6304483333333,-96.9807433333333,1.7,2.1,169,1001.62,4.5,44,3.42,0.0,1029.66,228.3
2018-04-19 14:40,50.63044,-96.98076,2.0,3.2,150,1001.64,5.1,45,3.41,0.0,1029.61,228.3
2018-04-19 14:50,50.6304383333333,-96.98076,2.8,3.8,123,1001.65,5.6,44,3.41,0.0,1029.58,228.3
2018-04-19 15:00,50.6304216666667,-96.9807683333333,4.4,4.9,138,1001.72,5.6,41,3.41,0.0,1029.62,229.4
2018-04-19 15:10,50.6304266666667,-96.9807633333333,4.6,5.0,136,1001.77,6.0,38,3.41,0.0,1029.64,229.4
2018-04-19 15:20,50.6304283333333,-96.980765,4.3,4.8,124,1001.80,5.9,39,3.40,0.0,1029.68,229.4
2018-04-19 15:30,50.63043,-96.9807683333333,5.3,6.1,136,1001.87,5.2,40,3.40,0.0,1029.76,229.4
2018-04-19 15:40,50.6304316666667,-96.9807683333333,5.4,6.2,133,1001.91,5.7,37,3.40,0.0,1029.73,229.4
2018-04-19 15:50,50.6304316666667,-96.9807683333333,5.9,6.5,130,1001.91,6.1,34,3.41,0.0,1029.67,229.4
2018-04-19 16:00,50.6304316666667,-96.980765,5.4,6.4,129,1001.97,6.1,32,3.41,0.0,1029.71,240.8
2018-04-19 16:10,50.6304333333333,-96.980765,5.9,7.1,128,1002.02,5.8,39,3.41,0.0,1029.77,240.8
2018-04-19 16:20,50.630435,-96.980765,7.1,7.7,129,1002.06,4.8,46,3.40,0.0,1029.84,240.8
2018-04-19 16:30,50.6304333333333,-96.980765,6.7,7.5,122,1002.07,4.9,48,3.40,0.0,1029.82,240.8
2018-04-19 16:40,50.6304166666667,-96.9807766666667,7.4,8.3,122,1002.12,5.2,43,3.40,0.0,1029.83,240.8
2018-04-19 16:50,50.630435,-96.980755,7.3,8.5,128,1002.18,5.0,49,3.40,0.0,1029.90,240.8
2018-04-19 17:00,50.6304383333333,-96.980755,6.4,8.5,124,1002.25,5.1,51,3.41,0.0,1029.95,345.5
2018-04-19 17:10,50.6304366666667,-96.980755,8.1,9.1,125,1002.26,4.5,54,3.41,0.0,1030.00,345.5
2018-04-19 17:20,50.6304366666667,-96.9807533333333,3.4,8.0,123,1002.31,4.2,60,3.41,0.0,1030.09,345.5
2018-04-19 17:30,50.6304366666667,-96.9807533333333,3.2,6.1,110,1002.32,5.3,55,3.41,0.0,1030.03,345.5
2018-04-19 17:40,50.6304333333333,-96.9807533333333,4.4,5.9,110,1002.27,6.2,54,3.42,0.0,1029.91,345.5
2018-04-19 17:50,50.630435,-96.9807566666667,8.3,9.6,116,1002.22,5.4,54,3.42,0.0,1029.90,345.5
2018-04-19 18:00,50.630435,-96.98076,8.2,9.0,123,1002.17,4.7,54,3.43,0.0,1029.90,23.5
2018-04-19 18:10,50.630435,-96.9807633333333,8.4,8.9,121,1002.13,4.8,50,3.43,0.0,1029.90,23.5
2018-04-19 18:20,50.630435,-96.9807633333333,9.0,9.5,121,1002.08,5.5,44,3.42,0.0,1029.80,23.5
2018-04-19 18:30,50.6304366666667,-96.9807633333333,9.6,9.8,123,1002.04,5.6,41,3.42,0.0,1029.75,23.5
2018-04-19 18:40,50.6304366666667,-96.980765,6.2,9.5,123,1002.08,5.7,45,3.43,0.0,1029.79,23.5
2018-04-19 18:50,50.6304366666667,-96.980765,4.2,6.8,135,1002.09,5.1,49,3.45,0.0,1029.82,23.5
2018-04-19 19:00,50.6304366666667,-96.980765,3.9,5.4,120,1002.05,6.0,50,3.45,0.0,1029.78,38.0
2018-04-19 19:10,50.6304366666667,-96.980765,6.1,7.0,123,1001.98,6.1,44,3.46,0.0,1029.71,38.0
2018-04-19 19:20,50.6304383333333,-96.980765,4.8,6.5,119,1001.99,6.6,46,3.47,0.0,1029.65,38.0
2018-04-19 19:30,50.6304366666667,-96.9807633333333,4.1,6.1,103,1001.99,6.9,47,3.48,0.0,1029.58,38.0
2018-04-19 19:40,50.6304366666667,-96.9807633333333,3.9,6.1,99,1001.96,7.0,46,3.49,0.0,1029.59,38.0
2018-04-19 19:50,50.63043,-96.9807583333333,6.4,7.1,105,1001.91,7.0,38,3.50,0.0,1029.58,38.0
2018-04-19 20:00,50.63043,-96.98075,5.6,7.1,95,1001.87,6.6,48,3.52,0.0,1029.54,360.0
2018-04-19 20:10,50.63043,-96.98075,6.1,7.1,96,1001.77,5.8,47,3.52,0.0,1029.45,360.0
2018-04-19 20:20,50.630425,-96.9807583333333,5.5,6.3,96,1001.67,6.9,41,3.53,0.0,1029.28,360.0
2018-04-19 20:30,50.63043,-96.9807616666667,4.6,6.1,97,1001.63,7.2,41,3.53,0.0,1029.22,360.0
2018-04-19 20:40,50.6304333333333,-96.9807666666667,5.1,5.8,95,1001.60,7.9,31,3.53,0.0,1029.19,360.0
2018-04-19 20:50,50.6304333333333,-96.980765,5.2,6.0,94,1001.54,8.6,31,3.54,0.0,1029.04,360.0
2018-04-19 21:00,50.6304383333333,-96.980755,5.0,5.8,95,1001.53,9.0,29,3.55,0.0,1029.01,360.0
2018-04-19 21:10,50.6304316666667,-96.980745,4.8,5.6,95,1001.50,9.4,28,3.56,0.0,1028.93,360.0
2018-04-19 21:20,50.630435,-96.98075,4.7,5.4,94,1001.44,9.4,28,3.57,0.0,1028.86,360.0
2018-04-19 21:30,50.630435,-96.9807466666667,5.4,5.9,91,1001.38,8.7,32,3.58,0.0,1028.82,360.0
2018-04-19 21:40,50.630435,-96.9807483333333,5.7,6.7,89,1001.24,8.8,30,3.59,0.0,1028.68,360.0
2018-04-19 21:50,50.6304333333333,-96.98075,5.5,6.1,90,1001.18,9.0,30,3.60,0.0,1028.62,360.0
2018-04-19 22:00,50.6304333333333,-96.9807516666667,4.0,4.8,93,1001.22,9.2,32,3.62,0.0,1028.70,119.2
2018-04-19 22:10,50.630435,-96.9807516666667,3.7,4.7,95,1001.21,9.0,33,3.62,0.0,1028.64,119.2
2018-04-19 22:20,50.630435,-96.9807516666667,4.3,4.8,103,1001.16,9.1,32,3.63,0.0,1028.58,119.2
2018-04-19 22:30,50.630435,-96.9807516666667,3.8,5.0,112,1001.15,8.3,36,3.63,0.0,1028.56,119.2
2018-04-19 22:40,50.6304416666667,-96.980745,2.8,3.8,115,1001.14,8.7,34,3.63,0.0,1028.49,119.2
2018-04-19 22:50,50.6304383333333,-96.9807566666667,3.3,4.5,94,1001.13,9.2,31,3.63,0.0,1028.44,119.2
2018-04-19 23:00,50.6304383333333,-96.98076,3.6,4.4,86,1001.09,8.4,33,3.63,0.0,1028.42,360.0
2018-04-19 23:10,50.630435,-96.98077,3.8,4.6,81,1001.08,7.7,33,3.63,0.0,1028.45,360.0
2018-04-19 23:20,50.6304066666667,-96.9807716666667,3.9,5.0,79,1001.06,7.6,34,3.64,0.0,1028.46,360.0
2018-04-19 23:30,50.6304216666667,-96.9807633333333,4.1,5.4,93,1001.02,8.3,32,3.64,0.0,1028.39,360.0
2018-04-19 23:40,50.6304233333333,-96.9807566666667,3.2,3.9,104,1001.07,8.4,34,3.65,0.0,1028.42,360.0
